Location: ??
(35.5653°N, 139.6194°E)
Time: 08:26:22
(UTC+00:00)

SL-16 R/B - Pass Details

Date: 20 November 2019
Orbit: 842 x 846 km, 71.0° (Epoch: 05 December)

Event Time Altitude Azimuth Distance (km) Brightness Sun altitude
Exits shadow 19:30:37 26° 339° (NNW) 1,608 3.4 -22.6°
Maximum altitude 19:33:57 89° 255° (WSW) 850 2.1 -21.9°
Drops below altitude 10° 19:39:37 10° 161° (SSE) 2,456 5.0 -20.8°
Sets 19:42:02 0° 161° (SSE) 3,387 5.7 -20.3°
